Other Surface Observations
Issued by NWS

Home | Current Version | Previous Version | Text Only | Print | Product List | Glossary On
Versions: 1 2 3 4 5 6 7 8 9 10 11 12 13 14 15 16 17 18 19 20 21 22 23 24 25 26 27 28 29 30 31 32 33 34 35 36 37 38 39 40 41 42 43 44 45 46 47 48 49 50
152
SXUS52 KTAE 260418
OSOTAE
OSOTAE
North Florida/South Alabama/Southwest Georgia Weather Roundup
National Weather Service Tallahassee Florida
1200 AM EDT SUN MAR 26 2017

Note: "fair" indicates few or no clouds below 12,000 feet with no
significant weather and/or obstructions to visibility.

!FLZ017-115-028-034-025-260500
...North Florida...

CITY           SKY/WX    TMP DP  RH WIND       PRES   REMARKS
TALLAHASSEE    PTCLDY    60  55  83 W3        30.12S
APALACHICOLA   CLOUDY    69  66  90 S7        30.12R
PERRY          PTCLDY    60  56  85 CALM      30.15R
CROSS CITY     CLEAR     57  54  88 CALM      30.14F
JACKSONVILLE   PTCLDY    63  59  87 SE3       30.17F
$$

!FLZ112-006-005-002-011-260500
...Florida Panhandle...

CITY           SKY/WX    TMP DP  RH WIND       PRES   REMARKS
MARIANNA       CLOUDY    68  60  75 S6        30.11S
BONIFAY        NOT AVBL
PANAMA CITY NW CLOUDY    68  63  84 SE6       30.11S
TYNDALL AFB    CLOUDY    67  63  87 SE8       30.12R
TYND DRONE APT CLOUDY    67  65  92 SE6       30.11S
DE FUNIAK SPR  TSTM      62  62 100 E5        30.15S
EGLIN AFB      LGT RAIN  62  61  96 E7        30.10F
DESTIN         LGT RAIN  66  32  28 NE6       30.10F
HURLBURT       LGT RAIN  62  62 100 N7        30.08S
CRESTVIEW      LGT RAIN  62  60  93 E6        30.12S
PENSACOLA      CLOUDY    65  61  87 E8G17     30.06F
$$

!ALZ063-066-260500
...South Alabama...

CITY           SKY/WX    TMP DP  RH WIND       PRES   REMARKS
DOTHAN         CLOUDY    69  60  73 SW7       30.16R
OZARK CAIRNS   LGT RAIN  64  63  94 W7        30.14R
FT RUCKER HELI LGT RAIN  64  63  94 W8        30.14R FOG
RUCKER HELI 3  LGT RAIN  63  63 100 S5        30.14R FOG
RUCKER HELI 2  LGT RAIN  64  63  94 W6        30.14R FOG
FLORALA APT    LGT RAIN  62  59  90 SE6       30.13F
ANDALUSIA      LGT RAIN  64  60  87 E9        30.09F
TROY           HVY RAIN  60  60 100 E6        30.13F FOG
EUFALA         CLOUDY    65  60  84 NW6       30.13R
MOBILE         CLEAR     62  60  93 SE6       30.05R
$$

!GAZ120>161-260500
...Southwest and South Central Georgia...

CITY           SKY/WX    TMP DP  RH WIND       PRES   REMARKS
THOMASVILLE    CLOUDY    64  59  82 CALM      30.15R
BAINBRIDGE     PTCLDY    63  55  77 CALM      30.13S
MOODY AFB      MOCLDY    67  57  69 SE10      30.14R
VALDOSTA       MOCLDY    68  57  68 SE10      30.14S
MOULTRIE       MOCLDY    64  55  72 E5        30.15R
BLAKELY        CLOUDY    68  57  68 CALM      30.12S
ALBANY         PTCLDY    61  55  81 E7        30.15S
TIFTON         FAIR      67  58  74 SE7       30.15R
FITZGERALD     FAIR      67  59  74 SE3       30.18R
CORDELE        CLOUDY    72  57  60 S7        30.16R
AMERICUS       FAIR      68  50  52 SE7       30.15S
HOMERVILLE     FAIR      64  59  82 SE6       30.17S
$$

!GMZ750-755-770-775-260500
...Coastal and Buoy Obs...

STATION/POSITION TIME  TEMP    WIND        PRES    VSBY  WAVE
                       AIR SEA DIR/SP/G                  HT/PER
                 (UTC) (F)     (DEG/KT/KT) (MB)    (MI)  (FT/S)
KEATON BEACH     0400   63      50/  2/  3 1020.2R
CEDAR KEY        0400   69      70/  5/  6 1020.9F
C TOWER          0400   68     190/ 10/ 10 1020.2R
APALACHICOLA BUO 0350   70 69  180/  6/  8 1019.1F         3/ 6
PANAMA CITY BUOY 0350   72 71              1019.1F         5/ 7
MOBILE BUOY      0400   70 73  160/ 12/ 14 1017.9
ORANGE BCH AL BU 0350   69 69  150/ 12/ 16 1017.1F         5/ 7
$$




USA.gov is the U.S. government's official web portal to all federal, state and local government web resources and services.